Location: San Martino di Castrozza
(46.2667°N, 11.8000°E)
Time: 08:07:11
(UTC+00:00)

Cosmos 2082 Rocket - Pass Details

Date: 23 April 2021
Orbit: 835 x 852 km, 71.0° (Epoch: 07 May)

Event Time Altitude Azimuth Distance (km) Brightness Sun altitude
Rises 00:28:55 0° 335° (NNW) 3,397 5.9 -28.6°
Reaches altitude 10° 00:31:23 10° 338° (NNW) 2,457 5.1 -28.5°
Maximum altitude 00:37:00 65° 61° (ENE) 916 2.4 -28.1°
Enters shadow 00:38:02 54° 110° (ESE) 1,008 2.5 -28.0°
